UPDATE 02.09.20 Die Stationsgrafiken wurden erweitert. Temperaturgrafik und Regentage unter Almanach -> Seperate Stationsgrafiken -> Temperatur
Besuchen Sie den Menüpunkt "Almanach / History" WU-Grafiken um Wetterdaten über die Jahre zu vergleichen!
Die Daten stammen von meiner Wetterstation und wurden von Weatherunderground aufgezeichnet.
Gewitter Gültig von: 18-05-2021 14:27 bis: 16:27 Warnung für: Gewitter Gefahrenstufe: Gelb info button

Rindlberg West Mehr Informationen Rindlberg West


Stuetzi - Rindlberg Ost Mehr Informationen Stuetzi - Rindlberg Ost


Warnung für Gewitter Mehr Informationen blitzortung!


Regenradar Mehr Informationen rain snow radar


Sie finden meine Wetter-Infos auch auf:

Weather Underground

AWEKAS



IOBERSTE7 History tables / reports. Script startWUhistory.php

Wählen sie eine andere Periode ( ausblenden )

Einheiten Zeitraum Benutzerdef. Zeitraum Direkt zu
metrisch Englisch Beide
Täglich Wöchentlich Monatlich Jährlich
Beide Datumseingaben nutzen um einen Bereich festzulegen
vorheriger Tag
Mit diesem Datum

WU Grafiken für diese Periode ( klicken ) Loading the graph can take up to a minute!


Täglich Zusammenfassung für Dienstag Mai 18 2021
Zeit Temp. ( °C ) Taupt. ( °C ) Wind ( km/h ) von Windböen ( km/h ) Luftdruck ( hPa ) Luftf.( % ) Regenrate ( cm )
Hoch12,6 7,7 35,0 Westen ( 1798/4064 ) 35,0 1014,9 90 0,25
Durchchnittswerte7,9 5,1 19,6 Westen #93/207 21,7 1003,3 83 0,50
Tief5,7 3,5 10,0   10,0 0,0 65 -
Täglich tabellarische Details für Dienstag Mai 18 2021
Zeit Temp. ( °C ) Taupt. ( °C ) Wind ( km/h ) von Windböen ( km/h ) Luftdruck ( hPa ) Luftf.( % ) Regenrate ( cm )
00:04 6,3 3,8 18,0 Westen 18,0 1011,9 84 -
00:09 6,3 3,8 16,0 Westen 21,0 1011,9 84 -
00:14 6,3 3,8 18,0 Westen 21,0 1011,9 84 -
00:19 6,2 3,7 19,0 Westen 18,0 1011,9 84 -
00:24 6,2 3,7 15,0 Westen 19,0 1011,9 84 -
00:29 6,2 3,7 19,0 WNW 19,0 1011,9 84 -
00:34 6,2 3,7 18,0 Westen 19,0 1011,9 84 -
00:39 6,1 3,6 18,0 Westen 19,0 1011,9 84 -
00:44 6,1 3,6 18,0 Westen 19,0 1011,9 84 -
00:49 6,1 3,6 18,0 WSW 18,0 1011,9 84 -
00:54 6,1 3,6 18,0 Westen 18,0 1011,9 84 -
00:59 6,1 3,6 18,0 Westen 18,0 1011,9 84 -
01:04 6,1 3,6 15,0 Westen 18,0 1011,9 84 -
01:09 6,1 3,6 16,0 Westen 18,0 1011,9 84 -
01:14 6,1 3,9 15,0 Westen 18,0 1011,9 86 -
01:19 6,1 3,9 19,0 Westen 18,0 1011,9 86 -
01:24 6,1 3,9 18,0 WNW 19,0 1011,9 86 -
01:29 6,0 3,8 13,0 Westen 19,0 1011,9 86 -
01:34 6,0 3,8 13,0 Westen 19,0 1011,9 86 -
01:39 6,0 3,8 18,0 Westen 19,0 1011,9 86 -
01:44 6,0 4,0 18,0 WNW 18,0 1011,9 87 -
01:49 6,0 4,0 21,0 WNW 18,0 1010,8 87 -
01:54 5,9 3,9 18,0 WNW 18,0 1010,8 87 -
01:59 5,9 3,9 18,0 WNW 21,0 1011,9 87 -
02:04 5,8 3,6 15,0 WNW 21,0 1011,9 86 -
02:09 5,8 3,6 18,0 WNW 21,0 1011,9 86 -
02:14 5,8 3,6 16,0 WNW 18,0 1011,9 86 -
02:19 5,8 3,6 24,0 WNW 18,0 1011,9 86 -
02:24 5,7 3,5 18,0 WNW 24,0 1011,9 86 -
02:29 5,7 3,5 21,0 Westen 24,0 1011,9 86 -
02:34 5,7 3,7 23,0 Westen 24,0 1010,8 87 -
02:39 5,8 3,8 15,0 Westen 24,0 1010,8 87 -
02:44 5,8 3,8 15,0 Westen 23,0 1011,9 87 -
02:49 5,8 3,8 15,0 Westen 18,0 1011,9 87 -
02:54 5,8 3,8 16,0 WSW 18,0 1011,9 87 -
02:59 5,8 4,0 15,0 Westen 16,0 1011,9 88 -
03:04 5,9 4,1 16,0 Westen 16,0 1011,9 88 -
03:09 5,9 4,1 16,0 Westen 16,0 1011,9 88 -
03:14 6,0 4,2 15,0 Westen 16,0 1011,9 88 -
03:19 6,0 4,2 18,0 Westen 16,0 1011,9 88 0,25
03:24 6,0 4,3 18,0 WSW 18,0 1011,9 89 0,25
03:29 6,0 4,3 19,0 Westen 18,0 1011,9 89 0,25
03:34 6,1 4,4 18,0 Westen 19,0 1011,9 89 0,25
03:39 6,1 4,4 18,0 Westen 19,0 1011,9 89 0,25
03:44 6,1 4,4 24,0 WNW 19,0 1011,9 89 0,25
03:49 6,2 4,5 19,0 Westen 24,0 1011,9 89 0,25
03:54 6,2 4,5 16,0 Westen 24,0 1011,9 89 0,25
03:59 6,2 4,5 18,0 Westen 24,0 1011,9 89 0,25
04:04 6,2 4,5 13,0 Westen 24,0 1011,9 89 0,25
04:09 6,2 4,5 15,0 Westen 18,0 1011,9 89 0,25
04:14 6,2 4,5 16,0 Westen 18,0 1011,9 89 -
04:19 6,2 4,5 18,0 WNW 18,0 1011,9 89 -
04:24 6,2 4,5 18,0 WNW 18,0 1011,9 89 -
04:29 6,3 4,6 24,0 Westen 18,0 1011,9 89 -
04:34 6,3 4,6 18,0 WNW 24,0 1011,9 89 -
04:39 6,3 4,6 15,0 WNW 24,0 1011,9 89 -
04:44 6,3 4,6 19,0 WNW 24,0 1011,9 89 -
04:49 6,3 4,6 15,0 Westen 19,0 1011,9 89 -
04:54 6,2 4,5 24,0 WNW 19,0 1011,9 89 -
04:59 6,2 4,5 19,0 WNW 24,0 1011,9 89 -
05:04 6,2 4,5 21,0 Westen 24,0 1011,9 89 -
05:09 6,2 4,5 21,0 WNW 24,0 1011,9 89 -
05:14 6,2 4,5 21,0 WNW 24,0 1011,9 89 -
05:19 6,2 4,5 26,0 Westen 21,0 1011,9 89 -
05:24 6,2 4,5 21,0 Westen 21,0 1011,9 89 -
05:29 6,2 4,5 24,0 Westen 26,0 1011,9 89 -
05:34 6,2 4,5 27,0 Westen 26,0 1011,9 89 -
05:39 6,2 4,5 24,0 Westen 27,0 1011,9 89 -
05:44 6,2 4,5 23,0 Westen 27,0 1012,9 89 -
05:49 6,2 4,5 21,0 WNW 27,0 1012,9 89 -
05:54 6,2 4,4 16,0 WNW 24,0 1012,9 88 -
05:59 6,2 4,4 15,0 WNW 24,0 1012,9 88 -
06:04 6,1 4,3 18,0 Westen 21,0 1012,9 88 -
06:09 6,1 4,3 16,0 WNW 16,0 1012,9 88 -
06:14 6,1 4,3 21,0 WNW 18,0 1012,9 88 -
06:19 6,1 4,3 21,0 WNW 18,0 1012,9 88 -
06:24 6,1 4,3 21,0 WNW 21,0 1012,9 88 -
06:29 6,1 4,3 15,0 WNW 21,0 1012,9 88 -
06:34 6,1 4,3 18,0 WNW 21,0 1012,9 88 -
06:39 6,1 4,4 15,0 Westen 21,0 1012,9 89 -
06:44 6,1 4,4 24,0 WNW 21,0 1012,9 89 -
06:49 6,1 4,4 21,0 Westen 18,0 1012,9 89 -
06:54 6,2 4,5 19,0 WNW 24,0 1012,9 89 -
06:59 6,2 4,5 19,0 Westen 24,0 1012,9 89 -
07:04 6,2 4,5 21,0 Westen 21,0 1012,9 89 -
07:09 6,1 4,4 23,0 Westen 21,0 1012,9 89 -
07:14 6,2 4,5 16,0 WNW 23,0 1012,9 89 -
07:19 6,2 4,5 21,0 WNW 23,0 1012,9 89 -
07:24 6,2 4,5 16,0 WNW 23,0 1012,9 89 -
07:29 6,2 4,5 18,0 WNW 23,0 1012,9 89 -
07:34 6,3 4,6 19,0 Westen 21,0 1012,9 89 -
07:39 6,3 4,6 18,0 WNW 21,0 1012,9 89 -
07:44 6,3 4,6 21,0 WNW 19,0 1012,9 89 -
07:49 6,3 4,8 23,0 WNW 19,0 1012,9 90 -
07:54 6,3 4,8 24,0 WNW 23,0 1012,9 90 -
07:59 6,3 4,8 18,0 WNW 24,0 1012,9 90 -
08:04 6,3 4,8 19,0 WNW 24,0 1012,9 90 -
08:09 6,3 4,8 18,0 WNW 24,0 1012,9 90 -
08:14 6,3 4,8 15,0 WNW 19,0 1012,9 90 -
08:19 6,3 4,8 18,0 WNW 19,0 1012,9 90 -
08:24 6,3 4,8 21,0 WNW 19,0 1012,9 90 -
08:29 6,4 4,9 18,0 WNW 21,0 1013,9 90 -
08:34 6,4 4,9 13,0 Westen 21,0 1013,9 90 -
08:39 6,4 4,9 16,0 Westen 21,0 1013,9 90 -
08:44 6,4 4,9 15,0 WNW 18,0 1013,9 90 -
08:49 6,4 4,9 15,0 WNW 16,0 1013,9 90 -
08:54 6,4 4,9 32,0 NW 16,0 1013,9 90 -
08:59 6,4 4,9 18,0 WNW 15,0 1013,9 90 -
09:04 6,4 4,7 18,0 WNW 32,0 1013,9 89 0,25
09:09 6,4 4,7 16,0 WNW 32,0 1013,9 89 0,25
09:14 6,5 5,0 21,0 WNW 18,0 1013,9 90 0,25
09:19 6,6 5,1 21,0 Westen 18,0 1013,9 90 0,25
09:24 6,7 5,2 23,0 WSW 21,0 1013,9 90 0,25
09:29 7,0 5,4 21,0 Westen 21,0 1013,9 90 0,25
09:34 7,3 5,8 16,0 Westen 23,0 1013,9 90 0,25
09:39 7,6 6,1 18,0 Westen 23,0 1013,9 90 0,25
09:44 7,8 6,3 21,0 Westen 21,0 1013,9 90 0,25
09:49 8,0 6,5 24,0 WNW 21,0 1013,9 90 0,25
09:54 8,0 6,3 21,0 Westen 24,0 1013,9 89 0,25
09:59 8,1 6,1 27,0 Westen 24,0 1013,9 88 0,25
10:04 8,2 6,2 24,0 WSW 27,0 1013,9 87 -
10:09 8,3 6,2 21,0 WSW 27,0 1013,9 87 -
10:14 8,4 6,2 24,0 Westen 27,0 1013,9 86 -
10:19 8,4 6,2 24,0 Westen 27,0 1013,9 86 -
10:24 8,2 5,7 21,0 WSW 24,0 1013,9 84 -
10:29 8,2 5,7 24,0 WNW 24,0 1013,9 84 -
10:34 8,2 5,5 21,0 Westen 24,0 1013,9 83 -
10:39 8,2 5,5 24,0 WNW 24,0 1013,9 83 -
10:44 8,0 5,3 18,0 Westen 24,0 1014,9 83 -
10:49 7,9 5,2 21,0 Westen 24,0 1014,9 83 -
10:54 8,2 5,7 21,0 Westen 24,0 1014,9 84 -
10:59 8,4 5,9 19,0 Westen 24,0 1014,9 84 -
11:04 8,7 6,5 18,0 Westen 21,0 1014,9 86 -
11:09 8,8 6,6 21,0 WSW 21,0 1014,9 86 -
11:14 9,3 7,1 21,0 Westen 21,0 1014,9 86 -
11:19 9,6 7,4 21,0 WSW 21,0 1013,9 86 -
11:24 10,0 7,7 21,0 WSW 21,0 1013,9 86 -
11:29 10,1 7,4 21,0 WSW 21,0 1013,9 84 -
11:34 10,1 7,3 23,0 WSW 21,0 1013,9 83 -
11:39 10,0 7,0 18,0 WSW 23,0 1013,9 82 -
11:44 10,0 6,9 18,0 WSW 23,0 1013,9 81 -
11:49 10,0 6,9 19,0 WSW 23,0 1013,9 81 -
11:54 10,0 6,7 18,0 Westen 18,0 1013,9 80 -
11:59 9,8 6,5 21,0 WSW 19,0 1013,9 80 -
12:04 9,8 6,5 21,0 WSW 21,0 1013,9 80 -
12:09 9,8 6,3 21,0 SW 21,0 1013,9 79 -
12:14 9,7 6,2 21,0 Westen 21,0 1013,9 79 -
12:19 9,7 6,4 21,0 Westen 21,0 1013,9 80 -
12:24 9,7 6,4 21,0 Westen 21,0 1013,9 80 -
12:29 9,6 6,1 18,0 Westen 21,0 1013,9 79 -
12:34 9,8 6,1 23,0 Westen 21,0 0,0 78 -
12:39 9,9 6,2 21,0 Westen 21,0 0,0 78 -
12:44 10,1 6,4 21,0 Westen 23,0 1013,9 78 -
12:49 10,5 7,0 21,0 Westen 23,0 1013,9 79 -
12:54 10,8 7,1 21,0 Westen 23,0 1013,9 79 -
12:59 10,8 7,1 18,0 Westen 21,0 1013,9 78 -
13:04 11,1 7,0 18,0 Westen 21,0 1013,9 76 -
13:09 11,3 6,9 24,0 WSW 21,0 1013,9 75 -
13:14 11,3 6,6 27,0 WSW 24,0 1013,9 73 -
13:19 11,4 6,3 21,0 WSW 27,0 1013,9 71 -
13:24 11,4 6,3 27,0 WNW 27,0 1013,9 71 -
13:29 11,3 6,0 19,0 Westen 27,0 1013,9 70 -
13:33 11,3 6,0 26,0 WSW 27,0 1013,9 70 -
13:39 11,4 5,9 24,0 Westen 27,0 1013,9 69 -
13:44 11,8 6,5 21,0 Westen 27,0 1013,9 70 -
13:49 12,1 6,9 21,0 SW 27,0 1013,9 71 -
13:54 12,1 6,4 21,0 Westen 24,0 1013,9 68 -
13:59 11,8 5,9 21,0 WSW 24,0 1013,9 67 -
14:04 11,7 5,8 21,0 WSW 21,0 1013,9 67 -
14:09 11,6 5,9 23,0 WSW 21,0 1013,9 68 -
14:14 11,6 6,1 21,0 WSW 23,0 1013,9 69 -
14:19 11,6 6,1 24,0 WSW 23,0 1013,9 69 -
14:24 12,1 7,2 23,0 WSW 24,0 1013,9 72 -
14:29 12,2 7,5 23,0 Westen 24,0 1013,9 73 -
14:34 12,2 6,9 21,0 Westen 24,0 1013,9 70 -
14:39 12,5 6,9 21,0 WSW 23,0 1013,9 69 -
14:44 12,6 6,8 27,0 WSW 23,0 1013,9 68 -
14:49 12,4 6,4 29,0 Westen 27,0 1013,9 67 -
14:54 12,5 6,3 27,0 WSW 29,0 1013,9 66 -
14:59 12,6 6,4 21,0 WNW 29,0 1013,9 66 -
15:04 12,5 6,1 24,0 WNW 29,0 1013,9 65 -
15:09 12,2 5,7 21,0 WNW 27,0 1013,9 65 -
15:14 11,8 5,4 13,0 NNW 27,0 1013,9 66 -
15:19 11,3 5,4 21,0 Westen 24,0 1013,9 67 -
15:24 11,1 5,2 24,0 Westen 21,0 1013,9 67 -
15:29 10,9 4,8 35,0 WSW 24,0 1013,9 66 -
15:34 10,6 4,5 27,0 Westen 26,0 1013,9 67 -
15:39 10,2 4,7 27,0 WNW 35,0 1013,9 70 -
15:44 9,6 4,5 24,0 WNW 35,0 1014,9 72 -
15:49 9,1 4,3 27,0 NW 27,0 1014,9 72 0,25
15:54 8,3 4,5 26,0 NW 27,0 1014,9 78 0,25
15:59 8,1 4,9 18,0 NW 27,0 1014,9 80 0,25
16:04 8,1 5,0 24,0 NNW 27,0 1014,9 81 0,25
16:09 8,0 4,9 18,0 NNW 27,0 1014,9 81 0,25
16:14 8,0 4,9 13,0 NNW 24,0 1014,9 81 0,25
16:19 7,9 4,8 10,0 NNW 24,0 1013,9 81 0,25
16:24 8,0 5,1 10,0 NNW 24,0 1013,9 82 0,25
16:29 8,0 5,1 10,0 NW 13,0 1013,9 82 0,25
16:34 8,1 5,2 13,0 NNW 10,0 1013,9 82 0,25
16:39 8,3 5,4 10,0 WNW 13,0 1013,9 82 0,25
16:44 8,5 5,8 13,0 NW 13,0 1013,9 83 0,25
16:49 9,0 6,4 18,0 WNW 13,0 1013,9 84 -
16:54 9,4 6,4 18,0 WNW 18,0 1013,9 83 -
16:59 9,8 6,5 18,0 NW 18,0 1013,9 81 -
17:04 10,2 6,4 18,0 Westen 18,0 1013,9 79 -
17:09 10,3 6,2 19,0 WNW 18,0 1013,9 76 -
17:14 10,5 6,3 18,0 WNW 19,0 1013,9 75 -
Täglich Zusammenfassung für Dienstag Mai 18 2021
Zeit Temp. ( °C ) Taupt. ( °C ) Wind ( km/h ) von Windböen ( km/h ) Luftdruck ( hPa ) Luftf.( % ) Regenrate ( cm )
Hoch12,6 7,7 35,0 Westen ( 1798/4064 ) 35,0 1014,9 90 0,25
Durchchnittswerte7,9 5,1 19,6 Westen #93/207 21,7 1003,3 83 0,50
Tief5,7 3,5 10,0   10,0 0,0 65 -
Täglich tabellarische Details für Dienstag Mai 18 2021
Zeit Temp. ( °C ) Taupt. ( °C ) Wind ( km/h ) von Windböen ( km/h ) Luftdruck ( hPa ) Luftf.( % ) Regenrate ( cm )
00:04 6,3 3,8 18,0 Westen 18,0 1011,9 84 -
00:09 6,3 3,8 16,0 Westen 21,0 1011,9 84 -
00:14 6,3 3,8 18,0 Westen 21,0 1011,9 84 -
00:19 6,2 3,7 19,0 Westen 18,0 1011,9 84 -
00:24 6,2 3,7 15,0 Westen 19,0 1011,9 84 -
00:29 6,2 3,7 19,0 WNW 19,0 1011,9 84 -
00:34 6,2 3,7 18,0 Westen 19,0 1011,9 84 -
00:39 6,1 3,6 18,0 Westen 19,0 1011,9 84 -
00:44 6,1 3,6 18,0 Westen 19,0 1011,9 84 -
00:49 6,1 3,6 18,0 WSW 18,0 1011,9 84 -
00:54 6,1 3,6 18,0 Westen 18,0 1011,9 84 -
00:59 6,1 3,6 18,0 Westen 18,0 1011,9 84 -
01:04 6,1 3,6 15,0 Westen 18,0 1011,9 84 -
01:09 6,1 3,6 16,0 Westen 18,0 1011,9 84 -
01:14 6,1 3,9 15,0 Westen 18,0 1011,9 86 -
01:19 6,1 3,9 19,0 Westen 18,0 1011,9 86 -
01:24 6,1 3,9 18,0 WNW 19,0 1011,9 86 -
01:29 6,0 3,8 13,0 Westen 19,0 1011,9 86 -
01:34 6,0 3,8 13,0 Westen 19,0 1011,9 86 -
01:39 6,0 3,8 18,0 Westen 19,0 1011,9 86 -
01:44 6,0 4,0 18,0 WNW 18,0 1011,9 87 -
01:49 6,0 4,0 21,0 WNW 18,0 1010,8 87 -
01:54 5,9 3,9 18,0 WNW 18,0 1010,8 87 -
01:59 5,9 3,9 18,0 WNW 21,0 1011,9 87 -
02:04 5,8 3,6 15,0 WNW 21,0 1011,9 86 -
02:09 5,8 3,6 18,0 WNW 21,0 1011,9 86 -
02:14 5,8 3,6 16,0 WNW 18,0 1011,9 86 -
02:19 5,8 3,6 24,0 WNW 18,0 1011,9 86 -
02:24 5,7 3,5 18,0 WNW 24,0 1011,9 86 -
02:29 5,7 3,5 21,0 Westen 24,0 1011,9 86 -
02:34 5,7 3,7 23,0 Westen 24,0 1010,8 87 -
02:39 5,8 3,8 15,0 Westen 24,0 1010,8 87 -
02:44 5,8 3,8 15,0 Westen 23,0 1011,9 87 -
02:49 5,8 3,8 15,0 Westen 18,0 1011,9 87 -
02:54 5,8 3,8 16,0 WSW 18,0 1011,9 87 -
02:59 5,8 4,0 15,0 Westen 16,0 1011,9 88 -
03:04 5,9 4,1 16,0 Westen 16,0 1011,9 88 -
03:09 5,9 4,1 16,0 Westen 16,0 1011,9 88 -
03:14 6,0 4,2 15,0 Westen 16,0 1011,9 88 -
03:19 6,0 4,2 18,0 Westen 16,0 1011,9 88 0,25
03:24 6,0 4,3 18,0 WSW 18,0 1011,9 89 0,25
03:29 6,0 4,3 19,0 Westen 18,0 1011,9 89 0,25
03:34 6,1 4,4 18,0 Westen 19,0 1011,9 89 0,25
03:39 6,1 4,4 18,0 Westen 19,0 1011,9 89 0,25
03:44 6,1 4,4 24,0 WNW 19,0 1011,9 89 0,25
03:49 6,2 4,5 19,0 Westen 24,0 1011,9 89 0,25
03:54 6,2 4,5 16,0 Westen 24,0 1011,9 89 0,25
03:59 6,2 4,5 18,0 Westen 24,0 1011,9 89 0,25
04:04 6,2 4,5 13,0 Westen 24,0 1011,9 89 0,25
04:09 6,2 4,5 15,0 Westen 18,0 1011,9 89 0,25
04:14 6,2 4,5 16,0 Westen 18,0 1011,9 89 -
04:19 6,2 4,5 18,0 WNW 18,0 1011,9 89 -
04:24 6,2 4,5 18,0 WNW 18,0 1011,9 89 -
04:29 6,3 4,6 24,0 Westen 18,0 1011,9 89 -
04:34 6,3 4,6 18,0 WNW 24,0 1011,9 89 -
04:39 6,3 4,6 15,0 WNW 24,0 1011,9 89 -
04:44 6,3 4,6 19,0 WNW 24,0 1011,9 89 -
04:49 6,3 4,6 15,0 Westen 19,0 1011,9 89 -
04:54 6,2 4,5 24,0 WNW 19,0 1011,9 89 -
04:59 6,2 4,5 19,0 WNW 24,0 1011,9 89 -
05:04 6,2 4,5 21,0 Westen 24,0 1011,9 89 -
05:09 6,2 4,5 21,0 WNW 24,0 1011,9 89 -
05:14 6,2 4,5 21,0 WNW 24,0 1011,9 89 -
05:19 6,2 4,5 26,0 Westen 21,0 1011,9 89 -
05:24 6,2 4,5 21,0 Westen 21,0 1011,9 89 -
05:29 6,2 4,5 24,0 Westen 26,0 1011,9 89 -
05:34 6,2 4,5 27,0 Westen 26,0 1011,9 89 -
05:39 6,2 4,5 24,0 Westen 27,0 1011,9 89 -
05:44 6,2 4,5 23,0 Westen 27,0 1012,9 89 -
05:49 6,2 4,5 21,0 WNW 27,0 1012,9 89 -
05:54 6,2 4,4 16,0 WNW 24,0 1012,9 88 -
05:59 6,2 4,4 15,0 WNW 24,0 1012,9 88 -
06:04 6,1 4,3 18,0 Westen 21,0 1012,9 88 -
06:09 6,1 4,3 16,0 WNW 16,0 1012,9 88 -
06:14 6,1 4,3 21,0 WNW 18,0 1012,9 88 -
06:19 6,1 4,3 21,0 WNW 18,0 1012,9 88 -
06:24 6,1 4,3 21,0 WNW 21,0 1012,9 88 -
06:29 6,1 4,3 15,0 WNW 21,0 1012,9 88 -
06:34 6,1 4,3 18,0 WNW 21,0 1012,9 88 -
06:39 6,1 4,4 15,0 Westen 21,0 1012,9 89 -
06:44 6,1 4,4 24,0 WNW 21,0 1012,9 89 -
06:49 6,1 4,4 21,0 Westen 18,0 1012,9 89 -
06:54 6,2 4,5 19,0 WNW 24,0 1012,9 89 -
06:59 6,2 4,5 19,0 Westen 24,0 1012,9 89 -
07:04 6,2 4,5 21,0 Westen 21,0 1012,9 89 -
07:09 6,1 4,4 23,0 Westen 21,0 1012,9 89 -
07:14 6,2 4,5 16,0 WNW 23,0 1012,9 89 -
07:19 6,2 4,5 21,0 WNW 23,0 1012,9 89 -
07:24 6,2 4,5 16,0 WNW 23,0 1012,9 89 -
07:29 6,2 4,5 18,0 WNW 23,0 1012,9 89 -
07:34 6,3 4,6 19,0 Westen 21,0 1012,9 89 -
07:39 6,3 4,6 18,0 WNW 21,0 1012,9 89 -
07:44 6,3 4,6 21,0 WNW 19,0 1012,9 89 -
07:49 6,3 4,8 23,0 WNW 19,0 1012,9 90 -
07:54 6,3 4,8 24,0 WNW 23,0 1012,9 90 -
07:59 6,3 4,8 18,0 WNW 24,0 1012,9 90 -
08:04 6,3 4,8 19,0 WNW 24,0 1012,9 90 -
08:09 6,3 4,8 18,0 WNW 24,0 1012,9 90 -
08:14 6,3 4,8 15,0 WNW 19,0 1012,9 90 -
08:19 6,3 4,8 18,0 WNW 19,0 1012,9 90 -
08:24 6,3 4,8 21,0 WNW 19,0 1012,9 90 -
08:29 6,4 4,9 18,0 WNW 21,0 1013,9 90 -
08:34 6,4 4,9 13,0 Westen 21,0 1013,9 90 -
08:39 6,4 4,9 16,0 Westen 21,0 1013,9 90 -
08:44 6,4 4,9 15,0 WNW 18,0 1013,9 90 -
08:49 6,4 4,9 15,0 WNW 16,0 1013,9 90 -
08:54 6,4 4,9 32,0 NW 16,0 1013,9 90 -
08:59 6,4 4,9 18,0 WNW 15,0 1013,9 90 -
09:04 6,4 4,7 18,0 WNW 32,0 1013,9 89 0,25
09:09 6,4 4,7 16,0 WNW 32,0 1013,9 89 0,25
09:14 6,5 5,0 21,0 WNW 18,0 1013,9 90 0,25
09:19 6,6 5,1 21,0 Westen 18,0 1013,9 90 0,25
09:24 6,7 5,2 23,0 WSW 21,0 1013,9 90 0,25
09:29 7,0 5,4 21,0 Westen 21,0 1013,9 90 0,25
09:34 7,3 5,8 16,0 Westen 23,0 1013,9 90 0,25
09:39 7,6 6,1 18,0 Westen 23,0 1013,9 90 0,25
09:44 7,8 6,3 21,0 Westen 21,0 1013,9 90 0,25
09:49 8,0 6,5 24,0 WNW 21,0 1013,9 90 0,25
09:54 8,0 6,3 21,0 Westen 24,0 1013,9 89 0,25
09:59 8,1 6,1 27,0 Westen 24,0 1013,9 88 0,25
10:04 8,2 6,2 24,0 WSW 27,0 1013,9 87 -
10:09 8,3 6,2 21,0 WSW 27,0 1013,9 87 -
10:14 8,4 6,2 24,0 Westen 27,0 1013,9 86 -
10:19 8,4 6,2 24,0 Westen 27,0 1013,9 86 -
10:24 8,2 5,7 21,0 WSW 24,0 1013,9 84 -
10:29 8,2 5,7 24,0 WNW 24,0 1013,9 84 -
10:34 8,2 5,5 21,0 Westen 24,0 1013,9 83 -
10:39 8,2 5,5 24,0 WNW 24,0 1013,9 83 -
10:44 8,0 5,3 18,0 Westen 24,0 1014,9 83 -
10:49 7,9 5,2 21,0 Westen 24,0 1014,9 83 -
10:54 8,2 5,7 21,0 Westen 24,0 1014,9 84 -
10:59 8,4 5,9 19,0 Westen 24,0 1014,9 84 -
11:04 8,7 6,5 18,0 Westen 21,0 1014,9 86 -
11:09 8,8 6,6 21,0 WSW 21,0 1014,9 86 -
11:14 9,3 7,1 21,0 Westen 21,0 1014,9 86 -
11:19 9,6 7,4 21,0 WSW 21,0 1013,9 86 -
11:24 10,0 7,7 21,0 WSW 21,0 1013,9 86 -
11:29 10,1 7,4 21,0 WSW 21,0 1013,9 84 -
11:34 10,1 7,3 23,0 WSW 21,0 1013,9 83 -
11:39 10,0 7,0 18,0 WSW 23,0 1013,9 82 -
11:44 10,0 6,9 18,0 WSW 23,0 1013,9 81 -
11:49 10,0 6,9 19,0 WSW 23,0 1013,9 81 -
11:54 10,0 6,7 18,0 Westen 18,0 1013,9 80 -
11:59 9,8 6,5 21,0 WSW 19,0 1013,9 80 -
12:04 9,8 6,5 21,0 WSW 21,0 1013,9 80 -
12:09 9,8 6,3 21,0 SW 21,0 1013,9 79 -
12:14 9,7 6,2 21,0 Westen 21,0 1013,9 79 -
12:19 9,7 6,4 21,0 Westen 21,0 1013,9 80 -
12:24 9,7 6,4 21,0 Westen 21,0 1013,9 80 -
12:29 9,6 6,1 18,0 Westen 21,0 1013,9 79 -
12:34 9,8 6,1 23,0 Westen 21,0 0,0 78 -
12:39 9,9 6,2 21,0 Westen 21,0 0,0 78 -
12:44 10,1 6,4 21,0 Westen 23,0 1013,9 78 -
12:49 10,5 7,0 21,0 Westen 23,0 1013,9 79 -
12:54 10,8 7,1 21,0 Westen 23,0 1013,9 79 -
12:59 10,8 7,1 18,0 Westen 21,0 1013,9 78 -
13:04 11,1 7,0 18,0 Westen 21,0 1013,9 76 -
13:09 11,3 6,9 24,0 WSW 21,0 1013,9 75 -
13:14 11,3 6,6 27,0 WSW 24,0 1013,9 73 -
13:19 11,4 6,3 21,0 WSW 27,0 1013,9 71 -
13:24 11,4 6,3 27,0 WNW 27,0 1013,9 71 -
13:29 11,3 6,0 19,0 Westen 27,0 1013,9 70 -
13:33 11,3 6,0 26,0 WSW 27,0 1013,9 70 -
13:39 11,4 5,9 24,0 Westen 27,0 1013,9 69 -
13:44 11,8 6,5 21,0 Westen 27,0 1013,9 70 -
13:49 12,1 6,9 21,0 SW 27,0 1013,9 71 -
13:54 12,1 6,4 21,0 Westen 24,0 1013,9 68 -
13:59 11,8 5,9 21,0 WSW 24,0 1013,9 67 -
14:04 11,7 5,8 21,0 WSW 21,0 1013,9 67 -
14:09 11,6 5,9 23,0 WSW 21,0 1013,9 68 -
14:14 11,6 6,1 21,0 WSW 23,0 1013,9 69 -
14:19 11,6 6,1 24,0 WSW 23,0 1013,9 69 -
14:24 12,1 7,2 23,0 WSW 24,0 1013,9 72 -
14:29 12,2 7,5 23,0 Westen 24,0 1013,9 73 -
14:34 12,2 6,9 21,0 Westen 24,0 1013,9 70 -
14:39 12,5 6,9 21,0 WSW 23,0 1013,9 69 -
14:44 12,6 6,8 27,0 WSW 23,0 1013,9 68 -
14:49 12,4 6,4 29,0 Westen 27,0 1013,9 67 -
14:54 12,5 6,3 27,0 WSW 29,0 1013,9 66 -
14:59 12,6 6,4 21,0 WNW 29,0 1013,9 66 -
15:04 12,5 6,1 24,0 WNW 29,0 1013,9 65 -
15:09 12,2 5,7 21,0 WNW 27,0 1013,9 65 -
15:14 11,8 5,4 13,0 NNW 27,0 1013,9 66 -
15:19 11,3 5,4 21,0 Westen 24,0 1013,9 67 -
15:24 11,1 5,2 24,0 Westen 21,0 1013,9 67 -
15:29 10,9 4,8 35,0 WSW 24,0 1013,9 66 -
15:34 10,6 4,5 27,0 Westen 26,0 1013,9 67 -
15:39 10,2 4,7 27,0 WNW 35,0 1013,9 70 -
15:44 9,6 4,5 24,0 WNW 35,0 1014,9 72 -
15:49 9,1 4,3 27,0 NW 27,0 1014,9 72 0,25
15:54 8,3 4,5 26,0 NW 27,0 1014,9 78 0,25
15:59 8,1 4,9 18,0 NW 27,0 1014,9 80 0,25
16:04 8,1 5,0 24,0 NNW 27,0 1014,9 81 0,25
16:09 8,0 4,9 18,0 NNW 27,0 1014,9 81 0,25
16:14 8,0 4,9 13,0 NNW 24,0 1014,9 81 0,25
16:19 7,9 4,8 10,0 NNW 24,0 1013,9 81 0,25
16:24 8,0 5,1 10,0 NNW 24,0 1013,9 82 0,25
16:29 8,0 5,1 10,0 NW 13,0 1013,9 82 0,25
16:34 8,1 5,2 13,0 NNW 10,0 1013,9 82 0,25
16:39 8,3 5,4 10,0 WNW 13,0 1013,9 82 0,25
16:44 8,5 5,8 13,0 NW 13,0 1013,9 83 0,25
16:49 9,0 6,4 18,0 WNW 13,0 1013,9 84 -
16:54 9,4 6,4 18,0 WNW 18,0 1013,9 83 -
16:59 9,8 6,5 18,0 NW 18,0 1013,9 81 -
17:04 10,2 6,4 18,0 Westen 18,0 1013,9 79 -
17:09 10,3 6,2 19,0 WNW 18,0 1013,9 76 -
17:14 10,5 6,3 18,0 WNW 19,0 1013,9 75 -

Lade ein Kopie deiner Daten  here

Meine Wetterdaten gespeichert auf Weather Underground. Script entwickelt von Jim McMurry. Rewritten for template use Leuven-Template